User: anonymous   Login
Location: Great Northern Moose Lodge
(44.6765°N, 71.1811°W)
Time: 00:47:20
(UTC-05:00)
Language:

Terra - Orbit

View from above orbital plane
View from above orbital plane
View from above satellite
View from above satellite

Ground track
Ground track

The orbit data is extracted from the following two-line orbital elements,

1 25994U 99068A   16037.72443602  .00000220  00000-0  58769-4 0  9999
2 25994  98.2012 113.8794 0001310 106.1947 253.9393 14.57119443858373
Epoch (UTC): 06 February 2016 17:23:11
Eccentricity: 0.0001310
inclination: 98.2012°
perigee height: 701 km
apogee height: 703 km
right ascension of ascending node: 113.8794°
argument of perigee: 106.1947°
revolutions per day: 14.57119443
mean anomaly at epoch: 253.9393°
orbit number at epoch: 85837

The dashed part of the orbit path shows where the satellite is in the earth's shadow,  

DLR